Simultaneous Nadir Overpasses (SNOs) Predictions

Prediction of SNOs between GOES-16 and TERRA Satellite Orbit:

Table of predicted SNOs for the next 14.0 days since TLE Epoch: 3/23/2017
Index Date Time (GOES-16) GOES-16 Lat,Lon TERRA Lat,Lon Distance(km) Time Diff (sec)
1 03/24/2017 04:37:37 -0.01, -89.47 -0.45, -91.43 223.56 80
2 03/26/2017 04:22:46 -0.02, -89.47 0.18, -88.48 112.82 80
3 03/26/2017 16:44:01 0.01, -89.50 0.90, -93.64 470.24 80
4 03/28/2017 04:10:35 -0.02, -89.48 0.82, -85.52 449.43 80
5 03/28/2017 16:31:50 0.02, -89.51 0.27, -90.68 133.52 80
6 03/30/2017 16:22:20 0.02, -89.51 -0.37, -87.73 203.20 80
7 03/31/2017 04:43:43 -0.01, -89.49 -0.74, -92.92 389.97 80
8 04/02/2017 04:31:32 -0.01, -89.49 -0.11, -89.96 53.34 80
9 04/04/2017 04:16:41 -0.01, -89.50 0.52, -87.01 283.50 80
10 04/04/2017 16:37:57 0.01, -89.53 0.57, -92.17 299.88 80
11 04/06/2017 16:28:26 0.01, -89.54 -0.06, -89.21 37.74 80




NCC Satellite Simultaneous Nadir Overpasses (SNOs) Prediction Service
